NOAA 16 DEB, 42345

Orbit data source: Space-Track

NOAA 16 DEB, 42345 is space debris in SSO originally from a launch on Thu, 21 Sep 2000 UTC launched from the Air Force Western Test Range (AFWTR). Debris objects in space refer to the collection of defunct objects orbiting the Earth. Examples of debris include non-operational satellites, rocket bodies, and fragments generated from explosions, collisions, or faulty payload assembly.

Loading next visibility...
Identifier
42345, 2000-055QM
Orbit
SSO
Country
Flag of USUS
Related business
Manufacturer
Unknown
Mission
Spacecraft
Bus & Motor
Unknown
Mass
Unknown
Launch date (UTC)
2000-09-21 (25 years ago)
Launch vehicle
Unknown
Launch site
Air Force Western Test Range (AFWTR)
Object type
Payload
Rocket body
Debris
Shape & HBR
Unknown shape, 0.1 m
Radar Cross Section
Small (<0.1 m²)

Expand to show TLE details & history
Last TLE update: 2 days ago

TLE from 2 days ago
0 NOAA 16 DEB
1 42345U 00055QM  25300.10294887  .00031710  00000-0  50883-2 0  9995
2 42345  98.7160  69.5581 0023797 355.2850   4.8127 14.71379322496012
Epoch: 2025-10-27T02:28Z
TLE epoch observation values (Epoch: 2025-10-27T02:28:14.782Z)
Latitude
-0.00001°
Longitude
-3.21309°
Altitude
642.967 km
Speed
7.545 km/s
True Right ascension
04h 38m 13s
True Declination
0° 00' 00"
Sunlit
Object was in full shadow at epoch
Visualization orbit readout
Latitude
Unknown
Longitude
Unknown
Altitude
Unknown
Speed
Unknown
Apparent Right ascension
Unknown
Apparent Declination
Unknown
Sunlit
N/A
Visualization observer readout
Local Sidereal Time
01:59:18
Azimuth
Unknown
Elevation
Unknown
Doppler factor
Unknown
Orbital elements
Apogee altitude
670.493 km
Perigee altitude
637.025 km
Semi-major axis
7,031.896 km
Eccentricity
0.00238
Inclination
98.716°
RAAN
69.5581°
Arg. of periapsis
355.285°
True anomaly
4.83565°
Mean anomaly
4.8127°
Eccentric anomaly
4.82417°
Mean motion
3.68073 °/min
Orbital period
97.81 mins
BSTAR
0.0050883
Loading maneuver chart data...
Computing Atmospheric mass density...
Loading historical data...
Loading historical data...
Loading historical data...
Loading historical data...
Loading historical data...
Loading historical data...
Loading historical data...

Documentation

Showing up to 5 results
|